Location: Wildlife_Club
(35.6000°N, 81.4330°W)
Time: 16:40:43
(UTC-05:00)

Iridium 56 - Visible Passes

Search period start: 21 December 2014 00:00
Search period end: 31 December 2014 00:00
Orbit: 776 x 779 km, 86.4° (Epoch: 21 December)

Date Brightness Start Highest point End Pass type
(mag) Time Alt. Az. Time Alt. Az. Time Alt. Az.
21 Dec 6.0 06:38:42 10° N 06:43:53 67° E 06:49:03 10° S visible
21 Dec 7.1 17:54:24 10° ESE 17:57:12 15° E 17:59:59 10° NE visible
21 Dec 6.2 19:32:19 10° SSW 19:37:22 52° W 19:41:31 15° NNW visible
22 Dec 7.2 06:05:32 10° NNE 06:10:16 34° E 06:14:58 10° SSE visible
22 Dec 5.4 18:58:37 10° S 19:03:49 81° E 19:09:02 10° N visible
23 Dec 8.2 05:32:57 10° NE 05:36:30 18° ENE 05:40:03 10° ESE visible
23 Dec 5.9 18:25:32 10° SSE 18:30:22 41° E 18:35:14 10° NNE visible
23 Dec 8.0 20:07:38 10° WSW 20:11:14 19° WNW 20:14:51 10° NW visible
24 Dec 5.5 06:38:43 10° N 06:43:56 82° W 06:49:08 10° S visible
24 Dec 6.7 17:53:10 10° SE 17:57:03 22° E 18:00:57 10° NNE visible
24 Dec 7.0 19:32:45 10° SSW 19:37:29 35° W 19:42:14 10° NNW visible
25 Dec 6.4 06:05:18 10° N 06:10:23 51° E 06:15:25 10° SSE visible
25 Dec 5.8 18:58:41 10° S 19:03:51 69° W 19:09:03 10° N visible
26 Dec 7.6 05:32:19 10° NNE 05:36:42 27° E 05:41:03 10° SE visible
26 Dec 5.5 18:25:14 10° SSE 18:30:20 62° E 18:35:29 10° N visible
26 Dec 8.4 20:09:18 10° W 20:11:28 13° WNW 20:13:39 10° NW visible
27 Dec 8.4 05:00:10 10° NE 05:02:53 14° ENE 05:05:34 10° ESE visible
27 Dec 5.6 06:38:51 10° NNW 06:43:56 55° W 06:48:59 10° SSW visible
27 Dec 6.2 17:52:24 10° SE 17:56:57 32° E 18:01:31 10° NNE visible
27 Dec 7.7 19:33:28 10° SW 19:37:38 24° W 19:41:49 10° NNW visible
28 Dec 5.7 06:05:13 10° N 06:10:26 77° E 06:15:38 10° S visible
28 Dec 6.6 18:58:57 10° SSW 19:03:55 46° W 19:08:55 10° NNW visible
29 Dec 6.9 05:31:57 10° NNE 05:36:50 39° E 05:41:40 10° SSE visible
29 Dec 5.5 18:25:08 10° S 18:30:20 89° W 18:35:34 10° N visible
30 Dec 7.9 04:59:12 10° NNE 05:03:05 21° E 05:06:57 10° SE visible
30 Dec 6.0 06:39:07 10° NNW 06:43:52 37° W 06:48:36 10° SSW visible
30 Dec 5.8 17:51:55 10° SSE 17:56:52 47° E 18:01:51 10° NNE visible
30 Dec 8.3 19:34:36 10° WSW 19:37:49 16° WNW 19:41:03 10° NW visible
